Location: Boiro
(42.6475°N, 8.8834°W)
Time: 17:50:21
(UTC+01:00)

A-11 Canister half - Pass Details

Date: 07 December 2021
Orbit: 1516 x 1684 km, 47.2° (Epoch: 26 January)

Event Time Altitude Azimuth Distance (km) Brightness Sun altitude
Rises 15:21:24 0° 294° (WNW) 4,909 11.7 19.6°
Reaches altitude 10° 15:25:07 10° 284° (WNW) 3,933 11.4 19.2°
Maximum altitude 15:33:08 28° 231° (SW) 2,782 12.0 18.5°
Drops below altitude 10° 15:41:11 10° 177° (S) 3,930 12.2 17.7°
Sets 15:44:56 0° 166° (SSE) 4,904 12.3 17.4°
